Location: site
(53.0000°N, 23.0500°E)
Time: 16:16:59
(UTC+01:00)

SAOCOM 1-A - Pass Details

Date: 17 January 2020
Orbit: 621 x 623 km, 97.9° (Epoch: 25 February)

Event Time Altitude Azimuth Distance (km) Brightness Sun altitude
Rises 05:30:46 0° 192° (SSW) 2,894 ? -17.5°
Reaches altitude 10° 05:33:11 10° 203° (SSW) 1,993 ? -17.2°
Maximum altitude 05:37:00 30° 265° (W) 1,128 ? -16.6°
Enters shadow 05:37:04 30° 267° (W) 1,128 ? -16.6°
